| time (UTC) | temp F | wind direction | speed MPH | gust MPH | rain 1hr in | rain 24hr in | rain mn in | humidity % | barometer mb |
| 20260508205744 | 65 | 254 | 1.0 | 3.0 | 0.00 | 0.00 | 0.00 | 54 | |
| 20260508205240 | 65 | 289 | 1.0 | 3.0 | 0.00 | 0.00 | 0.00 | 54 | |
| 20260508204736 | 65 | 337 | 2.0 | 5.0 | 0.00 | 0.00 | 0.00 | 54 | |
| 20260508204233 | 64 | 214 | 2.0 | 6.0 | 0.00 | 0.00 | 0.00 | 56 | |
| 20260508203729 | 63 | 227 | 3.0 | 5.0 | 0.00 | 0.00 | 0.00 | 57 | |
| 20260508203225 | 62 | 197 | 1.0 | 3.0 | 0.00 | 0.00 | 0.00 | 60 | |
| 20260508202716 | 61 | 127 | 1.0 | 5.0 | 0.00 | 0.00 | 0.00 | 61 | |
| 20260508202213 | 61 | 186 | 3.0 | 6.0 | 0.00 | 0.00 | 0.00 | 60 | |
| 20260508201710 | 63 | 244 | 2.0 | 5.0 | 0.00 | 0.00 | 0.00 | 58 | |
| 20260508201207 | 64 | 330 | 2.0 | 3.0 | 0.00 | 0.00 | 0.00 | 56 | |
| 20260508200704 | 63 | 180 | 3.0 | 5.0 | 0.00 | 0.00 | 0.00 | 56 | |
| 20260508200159 | 63 | 195 | 6.0 | 7.0 | 0.00 | 0.00 | 0.00 | 56 | |
| 20260508195656 | 64 | 230 | 1.0 | 3.0 | 0.00 | 0.00 | 0.00 | 54 | |
| 20260508195153 | 64 | 11 | 2.0 | 3.0 | 0.00 | 0.00 | 0.00 | 56 | |
| 20260508194649 | 64 | 101 | 2.0 | 6.0 | 0.00 | 0.00 | 0.00 | 55 | |
| 20260508194146 | 64 | 197 | 1.0 | 5.0 | 0.00 | 0.00 | 0.00 | 56 | |
| 20260508193643 | 63 | 156 | 1.0 | 5.0 | 0.00 | 0.00 | 0.00 | 56 | |
| 20260508193140 | 63 | 265 | 1.0 | 2.0 | 0.00 | 0.00 | 0.00 | 56 | |
| 20260508192636 | 63 | 217 | 3.0 | 5.0 | 0.00 | 0.00 | 0.00 | 53 | |
| 20260508192133 | 64 | 126 | 3.0 | 5.0 | 0.00 | 0.00 | 0.00 | 53 | |
| 20260508191625 | 63 | 176 | 2.0 | 5.0 | 0.00 | 0.00 | 0.00 | 53 | |
| 20260508191121 | 63 | 139 | 3.0 | 7.0 | 0.00 | 0.00 | 0.00 | 52 | |
| 20260508190619 | 63 | 225 | 2.0 | 3.0 | 0.00 | 0.00 | 0.00 | 51 | |
| 20260508190115 | 63 | 194 | 3.0 | 6.0 | 0.00 | 0.00 | 0.00 | 52 | |
| 20260508185612 | 65 | 154 | 2.0 | 5.0 | 0.00 | 0.00 | 0.00 | 51 | |
| 20260508185109 | 64 | 184 | 1.0 | 2.0 | 0.00 | 0.00 | 0.00 | 51 | |
| 20260508184607 | 64 | 150 | 1.0 | 2.0 | 0.00 | 0.00 | 0.00 | 51 | |
| 20260508184104 | 63 | 198 | 1.0 | 5.0 | 0.00 | 0.00 | 0.00 | 52 | |
| 20260508183600 | 63 | 58 | 2.0 | 2.0 | 0.00 | 0.00 | 0.00 | 51 | |
| 20260508183056 | 63 | 212 | 1.0 | 2.0 | 0.00 | 0.00 | 0.00 | 50 | |
| 20260508182552 | 64 | 272 | 1.0 | 3.0 | 0.00 | 0.00 | 0.00 | 51 | |
| 20260508182049 | 63 | 158 | 3.0 | 7.0 | 0.00 | 0.00 | 0.00 | 50 | |
| 20260508181544 | 63 | 68 | 1.0 | 3.0 | 0.00 | 0.00 | 0.00 | 50 | |
| 20260508181042 | 63 | 213 | 2.0 | 3.0 | 0.00 | 0.00 | 0.00 | 49 | |
| 20260508180538 | 63 | 195 | 4.0 | 6.0 | 0.00 | 0.00 | 0.00 | 48 | |
| 20260508180035 | 64 | 83 | 4.0 | 6.0 | 0.00 | 0.00 | 0.00 | 47 | |
| 20260508175532 | 64 | 175 | 2.0 | 3.0 | 0.00 | 0.00 | 0.00 | 49 | |
| 20260508175029 | 63 | 162 | 1.0 | 6.0 | 0.00 | 0.00 | 0.00 | 49 | |
| 20260508174526 | 63 | 218 | 3.0 | 6.0 | 0.00 | 0.00 | 0.00 | 48 | |
| 20260508174023 | 64 | 254 | 0.0 | 3.0 | 0.00 | 0.00 | 0.00 | 50 | |
| 20260508173520 | 64 | 285 | 2.0 | 3.0 | 0.00 | 0.00 | 0.00 | 48 | |
| 20260508173016 | 64 | 201 | 2.0 | 5.0 | 0.00 | 0.00 | 0.00 | 49 | |
| 20260508172513 | 63 | 197 | 1.0 | 3.0 | 0.00 | 0.00 | 0.00 | 46 | |
| 20260508172010 | 64 | 122 | 2.0 | 5.0 | 0.00 | 0.00 | 0.00 | 43 | |
| 20260508171506 | 64 | 341 | 4.0 | 7.0 | 0.00 | 0.00 | 0.00 | 41 | |
| 20260508171003 | 64 | 261 | 2.0 | 6.0 | 0.00 | 0.00 | 0.00 | 39 | |
| 20260508170500 | 64 | 206 | 3.0 | 3.0 | 0.00 | 0.00 | 0.00 | 40 | |
| 20260508165957 | 64 | 296 | 1.0 | 5.0 | 0.00 | 0.00 | 0.00 | 42 | |
| 20260508165455 | 64 | 256 | 1.0 | 3.0 | 0.00 | 0.00 | 0.00 | 42 | |
| 20260508164950 | 63 | 234 | 1.0 | 2.0 | 0.00 | 0.00 | 0.00 | 42 | |
| 20260508164448 | 63 | 310 | 3.0 | 5.0 | 0.00 | 0.00 | 0.00 | 39 | |
| 20260508163944 | 63 | 213 | 0.0 | 2.0 | 0.00 | 0.00 | 0.00 | 41 | |
| 20260508163442 | 62 | 261 | 1.0 | 2.0 | 0.00 | 0.00 | 0.00 | 45 | |
| 20260508162938 | 60 | 288 | 2.0 | 5.0 | 0.00 | 0.00 | 0.00 | 44 | |
| 20260508162436 | 61 | 250 | 1.0 | 3.0 | 0.00 | 0.00 | 0.00 | 42 | |
| 20260508161932 | 61 | 312 | 3.0 | 3.0 | 0.00 | 0.00 | 0.00 | 43 | |
| 20260508161429 | 64 | 174 | 2.0 | 5.0 | 0.00 | 0.00 | 0.00 | 41 | |
| 20260508160927 | 63 | 281 | 1.0 | 2.0 | 0.00 | 0.00 | 0.00 | 43 | |
| 20260508160426 | 62 | 244 | 2.0 | 3.0 | 0.00 | 0.00 | 0.00 | 46 | |
| 20260508155921 | 62 | 166 | 2.0 | 3.0 | 0.00 | 0.00 | 0.00 | 43 | |
| 20260508155419 | 61 | 236 | 0.0 | 2.0 | 0.00 | 0.00 | 0.00 | 44 | |
| 20260508154915 | 61 | 33 | 2.0 | 2.0 | 0.00 | 0.00 | 0.00 | 45 | |
| 20260508154413 | 61 | 265 | 2.0 | 3.0 | 0.00 | 0.00 | 0.00 | 44 | |
| 20260508153909 | 60 | 284 | 1.0 | 1.0 | 0.00 | 0.00 | 0.00 | 45 | |
| 20260508153407 | 61 | 225 | 0.0 | 1.0 | 0.00 | 0.00 | 0.00 | 43 | |
| 20260508152903 | 61 | 303 | 0.0 | 2.0 | 0.00 | 0.00 | 0.00 | 45 | |
| 20260508152359 | 60 | 244 | 0.0 | 3.0 | 0.00 | 0.00 | 0.00 | 46 | |
| 20260508151856 | 58 | 175 | 0.0 | 3.0 | 0.00 | 0.00 | 0.00 | 48 | |
| 20260508151353 | 59 | 240 | 1.0 | 2.0 | 0.00 | 0.00 | 0.00 | 46 | |
| 20260508150849 | 60 | 237 | 0.0 | 2.0 | 0.00 | 0.00 | 0.00 | 49 | |
| 20260508150346 | 58 | 248 | 1.0 | 2.0 | 0.00 | 0.00 | 0.00 | 47 | |
| 20260508145842 | 59 | 53 | 1.0 | 1.0 | 0.00 | 0.00 | 0.00 | 47 | |
| 20260508145338 | 57 | 254 | 1.0 | 2.0 | 0.00 | 0.00 | 0.00 | 48 | |
| 20260508144835 | 59 | 313 | 3.0 | 5.0 | 0.00 | 0.00 | 0.00 | 49 | |
| 20260508144333 | 60 | 348 | 1.0 | 2.0 | 0.00 | 0.00 | 0.00 | 47 | |
| 20260508143830 | 59 | 185 | 0.0 | 1.0 | 0.00 | 0.00 | 0.00 | 47 | |
| 20260508143327 | 57 | 249 | 1.0 | 2.0 | 0.00 | 0.00 | 0.00 | 51 | |
| 20260508142824 | 59 | 250 | 2.0 | 3.0 | 0.00 | 0.00 | 0.00 | 53 | |
| 20260508142321 | 58 | 322 | 3.0 | 3.0 | 0.00 | 0.00 | 0.00 | 55 | |
| 20260508141817 | 57 | 293 | 1.0 | 2.0 | 0.00 | 0.00 | 0.00 | 54 | |
| 20260508141314 | 56 | 318 | 3.0 | 3.0 | 0.00 | 0.00 | 0.00 | 58 | |
| 20260508140812 | 57 | 308 | 0.0 | 1.0 | 0.00 | 0.00 | 0.00 | 58 | |
| 20260508140309 | 55 | 302 | 1.0 | 3.0 | 0.00 | 0.00 | 0.00 | 60 | |
| 20260508135804 | 56 | 243 | 1.0 | 1.0 | 0.00 | 0.00 | 0.00 | 60 | |
| 20260508135301 | 57 | 246 | 2.0 | 2.0 | 0.00 | 0.00 | 0.00 | 59 | |
| 20260508134756 | 56 | 214 | 1.0 | 2.0 | 0.00 | 0.00 | 0.00 | 60 | |
| 20260508134254 | 57 | 233 | 0.0 | 1.0 | 0.00 | 0.00 | 0.00 | 59 | |
| 20260508133750 | 56 | 238 | 1.0 | 2.0 | 0.00 | 0.00 | 0.00 | 62 | |
| 20260508133248 | 55 | 245 | 0.0 | 2.0 | 0.00 | 0.00 | 0.00 | 62 | |
| 20260508132746 | 55 | 254 | 1.0 | 1.0 | 0.00 | 0.00 | 0.00 | 64 | |
| 20260508132243 | 54 | 245 | 0.0 | 2.0 | 0.00 | 0.00 | 0.00 | 66 | |
| 20260508131738 | 54 | 258 | 1.0 | 2.0 | 0.00 | 0.00 | 0.00 | 66 | |
| 20260508131235 | 56 | 270 | 1.0 | 2.0 | 0.00 | 0.00 | 0.00 | 63 | |
| 20260508130731 | 54 | 246 | 1.0 | 1.0 | 0.00 | 0.00 | 0.00 | 65 | |
| 20260508130229 | 53 | 234 | 0.0 | 1.0 | 0.00 | 0.00 | 0.00 | 67 | |
| 20260508125724 | 51 | 278 | 2.0 | 3.0 | 0.00 | 0.00 | 0.00 | 71 | |
| 20260508125221 | 53 | 302 | 1.0 | 3.0 | 0.00 | 0.00 | 0.00 | 69 | |
| 20260508124719 | 52 | 263 | 1.0 | 1.0 | 0.00 | 0.00 | 0.00 | 68 | |
| 20260508124216 | 52 | 247 | 0.0 | 1.0 | 0.00 | 0.00 | 0.00 | 70 | |
| 20260508123714 | 52 | 278 | 1.0 | 1.0 | 0.00 | 0.00 | 0.00 | 69 | |
| 20260508123212 | 52 | 172 | 1.0 | 2.0 | 0.00 | 0.00 | 0.00 | 69 | |
| 20260508122708 | 52 | 233 | 0.0 | 1.0 | 0.00 | 0.00 | 0.00 | 71 | |
| 20260508122205 | 51 | 241 | 1.0 | 2.0 | 0.00 | 0.00 | 0.00 | 73 | |
| 20260508121703 | 51 | 257 | 1.0 | 1.0 | 0.00 | 0.00 | 0.00 | 73 | |
| 20260508121201 | 49 | 260 | 1.0 | 1.0 | 0.00 | 0.00 | 0.00 | 76 | |
| 20260508120658 | 48 | 246 | 1.0 | 3.0 | 0.00 | 0.00 | 0.00 | 78 | |
| 20260508120156 | 48 | 302 | 1.0 | 3.0 | 0.00 | 0.00 | 0.00 | 78 | |
| 20260508115653 | 48 | 246 | 1.0 | 2.0 | 0.00 | 0.00 | 0.00 | 80 | |
| 20260508115150 | 46 | 243 | 0.0 | 1.0 | 0.00 | 0.00 | 0.00 | 82 | |
| 20260508114647 | 46 | 260 | 1.0 | 1.0 | 0.00 | 0.00 | 0.00 | 83 | |
| 20260508114144 | 45 | 258 | 0.0 | 1.0 | 0.00 | 0.00 | 0.00 | 85 | |
| 20260508113640 | 44 | 270 | 1.0 | 2.0 | 0.00 | 0.00 | 0.00 | 86 | |
| 20260508113139 | 44 | 280 | 1.0 | 1.0 | 0.00 | 0.00 | 0.00 | 86 | |
| 20260508112635 | 44 | 297 | 1.0 | 1.0 | 0.00 | 0.00 | 0.00 | 87 | |
| 20260508112132 | 43 | 254 | 0.0 | 0.0 | 0.00 | 0.00 | 0.00 | 87 | |
| 20260508111628 | 43 | 254 | 0.0 | 0.0 | 0.00 | 0.00 | 0.00 | 88 | |
| 20260508111125 | 43 | 247 | 0.0 | 0.0 | 0.00 | 0.00 | 0.00 | 88 | |
| 20260508110623 | 43 | 248 | 0.0 | 0.0 | 0.00 | 0.00 | 0.00 | 88 | |
| 20260508110119 | 42 | 242 | 0.0 | 0.0 | 0.00 | 0.00 | 0.00 | 88 | |
| 20260508105614 | 42 | 245 | 0.0 | 0.0 | 0.00 | 0.00 | 0.00 | 88 | |
| 20260508105111 | 42 | 245 | 0.0 | 0.0 | 0.00 | 0.00 | 0.00 | 88 | |
| 20260508104609 | 42 | 241 | 0.0 | 0.0 | 0.00 | 0.00 | 0.00 | 88 | |
| 20260508104105 | 42 | 244 | 0.0 | 0.0 | 0.00 | 0.00 | 0.00 | 88 | |
| 20260508103603 | 42 | 252 | 0.0 | 0.0 | 0.00 | 0.00 | 0.00 | 88 | |
| 20260508103100 | 42 | 255 | 0.0 | 0.0 | 0.00 | 0.00 | 0.00 | 88 | |
| 20260508102557 | 42 | 244 | 0.0 | 0.0 | 0.00 | 0.00 | 0.00 | 88 | |
| 20260508102055 | 42 | 244 | 0.0 | 0.0 | 0.00 | 0.00 | 0.00 | 88 | |
| 20260508101552 | 42 | 241 | 0.0 | 0.0 | 0.00 | 0.00 | 0.00 | 87 | |
| 20260508101049 | 42 | 241 | 0.0 | 0.0 | 0.00 | 0.00 | 0.00 | 87 | |
| 20260508100547 | 42 | 237 | 0.0 | 0.0 | 0.00 | 0.00 | 0.00 | 87 | |
| 20260508100044 | 43 | 238 | 0.0 | 0.0 | 0.00 | 0.00 | 0.00 | 87 | |
| 20260508095541 | 42 | 239 | 0.0 | 0.0 | 0.00 | 0.00 | 0.00 | 86 | |
| 20260508095038 | 42 | 249 | 0.0 | 0.0 | 0.00 | 0.00 | 0.00 | 86 | |
| 20260508094535 | 43 | 244 | 0.0 | 0.0 | 0.00 | 0.00 | 0.00 | 85 | |
| 20260508094032 | 43 | 242 | 0.0 | 0.0 | 0.00 | 0.00 | 0.00 | 85 | |
| 20260508093529 | 44 | 241 | 0.0 | 0.0 | 0.00 | 0.00 | 0.00 | 84 | |
| 20260508093027 | 44 | 237 | 0.0 | 0.0 | 0.00 | 0.00 | 0.00 | 84 | |
| 20260508092524 | 44 | 233 | 0.0 | 0.0 | 0.00 | 0.00 | 0.00 | 83 | |
| 20260508092023 | 44 | 232 | 0.0 | 0.0 | 0.00 | 0.00 | 0.00 | 83 | |
| 20260508091519 | 44 | 237 | 0.0 | 1.0 | 0.00 | 0.00 | 0.00 | 83 | |
| 20260508091016 | 45 | 239 | 0.0 | 0.0 | 0.00 | 0.00 | 0.00 | 82 | |
| 20260508090514 | 45 | 240 | 0.0 | 0.0 | 0.00 | 0.00 | 0.00 | 82 | |
| 20260508090010 | 45 | 242 | 0.0 | 0.0 | 0.00 | 0.00 | 0.00 | 81 | |
| 20260508085507 | 45 | 243 | 0.0 | 0.0 | 0.00 | 0.00 | 0.00 | 81 | |
| 20260508085004 | 45 | 230 | 0.0 | 1.0 | 0.00 | 0.00 | 0.00 | 80 | |
| 20260508084501 | 46 | 273 | 0.0 | 1.0 | 0.00 | 0.00 | 0.00 | 80 | |
| 20260508083958 | 46 | 254 | 0.0 | 0.0 | 0.00 | 0.00 | 0.00 | 79 | |
| 20260508083455 | 46 | 254 | 0.0 | 1.0 | 0.00 | 0.00 | 0.00 | 79 | |
| 20260508082950 | 46 | 274 | 1.0 | 1.0 | 0.00 | 0.00 | 0.00 | 79 | |
| 20260508082447 | 46 | 255 | 0.0 | 1.0 | 0.00 | 0.00 | 0.00 | 78 | |
| 20260508081945 | 46 | 261 | 1.0 | 2.0 | 0.00 | 0.00 | 0.00 | 78 | |
| 20260508081442 | 46 | 251 | 0.0 | 1.0 | 0.00 | 0.00 | 0.00 | 78 | |
| 20260508080938 | 46 | 245 | 0.0 | 1.0 | 0.00 | 0.00 | 0.00 | 77 | |
| 20260508080437 | 47 | 246 | 0.0 | 1.0 | 0.00 | 0.00 | 0.00 | 77 | |
| 20260508075933 | 47 | 259 | 0.0 | 1.0 | 0.00 | 0.00 | 0.00 | 77 | |
| 20260508075430 | 47 | 254 | 0.0 | 2.0 | 0.00 | 0.00 | 0.00 | 76 | |
| 20260508074928 | 47 | 270 | 1.0 | 2.0 | 0.00 | 0.00 | 0.00 | 76 | |
| 20260508074425 | 47 | 337 | 2.0 | 5.0 | 0.00 | 0.00 | 0.00 | 76 | |
| 20260508073921 | 47 | 267 | 0.0 | 3.0 | 0.00 | 0.00 | 0.00 | 76 | |
| 20260508073420 | 47 | 310 | 2.0 | 3.0 | 0.00 | 0.00 | 0.00 | 76 | |
| 20260508072916 | 47 | 251 | 0.0 | 2.0 | 0.00 | 0.00 | 0.00 | 76 | |
| 20260508072412 | 46 | 252 | 0.0 | 1.0 | 0.00 | 0.00 | 0.00 | 76 | |
| 20260508071910 | 46 | 241 | 1.0 | 2.0 | 0.00 | 0.00 | 0.00 | 77 | |
| 20260508071408 | 46 | 248 | 0.0 | 1.0 | 0.00 | 0.00 | 0.00 | 76 | |
| 20260508070905 | 46 | 259 | 0.0 | 1.0 | 0.00 | 0.00 | 0.00 | 77 | |
| 20260508070403 | 46 | 272 | 1.0 | 2.0 | 0.00 | 0.00 | 0.00 | 77 | |
| 20260508065900 | 45 | 244 | 0.0 | 0.0 | 0.00 | 0.00 | 0.00 | 78 | |
| 20260508065358 | 45 | 246 | 0.0 | 0.0 | 0.00 | 0.00 | 0.00 | 78 | |
| 20260508064856 | 45 | 239 | 0.0 | 0.0 | 0.00 | 0.00 | 0.00 | 78 | |
| 20260508064353 | 45 | 241 | 0.0 | 0.0 | 0.00 | 0.00 | 0.00 | 78 | |
| 20260508063851 | 45 | 239 | 0.0 | 0.0 | 0.00 | 0.00 | 0.00 | 78 | |
| 20260508063349 | 45 | 240 | 0.0 | 0.0 | 0.00 | 0.00 | 0.00 | 77 | |
| 20260508062846 | 45 | 239 | 0.0 | 0.0 | 0.00 | 0.00 | 0.00 | 77 | |
| 20260508062343 | 45 | 235 | 0.0 | 0.0 | 0.00 | 0.00 | 0.00 | 77 | |
| 20260508061840 | 45 | 233 | 0.0 | 0.0 | 0.00 | 0.00 | 0.00 | 76 | |
| 20260508061337 | 45 | 233 | 0.0 | 0.0 | 0.00 | 0.00 | 0.00 | 76 | |
| 20260508060833 | 45 | 251 | 0.0 | 0.0 | 0.00 | 0.00 | 0.00 | 76 | |
| 20260508060331 | 46 | 254 | 0.0 | 0.0 | 0.00 | 0.00 | 0.00 | 75 | |
| 20260508055826 | 45 | 247 | 0.0 | 0.0 | 0.00 | 0.00 | 0.00 | 75 | |
| 20260508055324 | 46 | 247 | 0.0 | 0.0 | 0.00 | 0.00 | 0.00 | 74 | |
| 20260508054820 | 46 | 244 | 0.0 | 0.0 | 0.00 | 0.00 | 0.00 | 74 | |
| 20260508054318 | 46 | 257 | 0.0 | 0.0 | 0.00 | 0.00 | 0.00 | 73 | |
| 20260508053815 | 47 | 247 | 0.0 | 0.0 | 0.00 | 0.00 | 0.00 | 72 | |
| 20260508053313 | 47 | 248 | 0.0 | 0.0 | 0.00 | 0.00 | 0.00 | 71 | |
| 20260508052809 | 47 | 245 | 0.0 | 0.0 | 0.00 | 0.00 | 0.00 | 71 | |
| 20260508052307 | 48 | 241 | 0.0 | 0.0 | 0.00 | 0.00 | 0.00 | 70 | |
| 20260508051803 | 48 | 274 | 1.0 | 1.0 | 0.00 | 0.00 | 0.00 | 70 | |
| 20260508051258 | 48 | 271 | 1.0 | 1.0 | 0.00 | 0.00 | 0.00 | 70 | |
| 20260508050755 | 48 | 249 | 0.0 | 0.0 | 0.00 | 0.00 | 0.00 | 69 | |
| 20260508050252 | 48 | 245 | 0.0 | 1.0 | 0.00 | 0.00 | 0.00 | 69 | |
| 20260508045748 | 48 | 237 | 0.0 | 1.0 | 0.00 | 0.00 | 0.00 | 69 | |
| 20260508045246 | 48 | 274 | 0.0 | 0.0 | 0.00 | 0.00 | 0.00 | 68 | |
| 20260508044743 | 49 | 241 | 0.0 | 1.0 | 0.00 | 0.00 | 0.00 | 68 | |
| 20260508044240 | 49 | 249 | 0.0 | 0.0 | 0.00 | 0.00 | 0.00 | 67 | |
| 20260508043736 | 49 | 248 | 0.0 | 0.0 | 0.00 | 0.00 | 0.00 | 66 | |
| 20260508043233 | 49 | 258 | 1.0 | 1.0 | 0.00 | 0.00 | 0.00 | 66 | |
| 20260508042730 | 50 | 248 | 0.0 | 1.0 | 0.00 | 0.00 | 0.00 | 66 | |
| 20260508042227 | 50 | 268 | 0.0 | 0.0 | 0.00 | 0.00 | 0.00 | 66 | |
| 20260508041723 | 50 | 239 | 0.0 | 0.0 | 0.00 | 0.00 | 0.00 | 65 | |
| 20260508041220 | 50 | 241 | 0.0 | 1.0 | 0.00 | 0.00 | 0.00 | 64 | |
| 20260508040717 | 50 | 250 | 0.0 | 1.0 | 0.00 | 0.00 | 0.00 | 64 | |
| 20260508040214 | 50 | 255 | 0.0 | 1.0 | 0.00 | 0.00 | 0.00 | 63 | |
| 20260508035711 | 51 | 204 | 0.0 | 2.0 | 0.00 | 0.00 | 0.00 | 63 | |
| 20260508035209 | 51 | 235 | 0.0 | 1.0 | 0.00 | 0.00 | 0.00 | 63 | |
| 20260508034705 | 51 | 223 | 0.0 | 1.0 | 0.00 | 0.00 | 0.00 | 62 | |
| 20260508034203 | 51 | 242 | 0.0 | 1.0 | 0.00 | 0.00 | 0.00 | 61 | |
| 20260508033659 | 51 | 255 | 0.0 | 1.0 | 0.00 | 0.00 | 0.00 | 60 | |
| 20260508033158 | 51 | 227 | 1.0 | 1.0 | 0.00 | 0.00 | 0.00 | 61 | |
| 20260508032655 | 51 | 241 | 0.0 | 1.0 | 0.00 | 0.00 | 0.00 | 60 | |
| 20260508032152 | 51 | 240 | 0.0 | 1.0 | 0.00 | 0.00 | 0.00 | 59 | |
| 20260508031649 | 51 | 261 | 0.0 | 0.0 | 0.00 | 0.00 | 0.00 | 58 | |
| 20260508031145 | 51 | 303 | 1.0 | 2.0 | 0.00 | 0.00 | 0.00 | 58 | |
| 20260508030641 | 52 | 292 | 2.0 | 5.0 | 0.00 | 0.00 | 0.00 | 57 | |
| 20260508030139 | 52 | 254 | 1.0 | 3.0 | 0.00 | 0.00 | 0.00 | 57 | |
| 20260508025635 | 52 | 262 | 1.0 | 3.0 | 0.00 | 0.00 | 0.00 | 56 | |
| 20260508025133 | 52 | 271 | 2.0 | 5.0 | 0.00 | 0.00 | 0.00 | 57 | |
| 20260508024628 | 52 | 270 | 1.0 | 6.0 | 0.00 | 0.00 | 0.00 | 55 | |
| 20260508024126 | 52 | 277 | 0.0 | 5.0 | 0.00 | 0.00 | 0.00 | 53 | |
| 20260508023622 | 53 | 272 | 1.0 | 3.0 | 0.00 | 0.00 | 0.00 | 53 | |
| 20260508023120 | 53 | 260 | 1.0 | 1.0 | 0.00 | 0.00 | 0.00 | 50 | |
| 20260508022615 | 53 | 257 | 0.0 | 1.0 | 0.00 | 0.00 | 0.00 | 49 | |
| 20260508022113 | 53 | 242 | 0.0 | 3.0 | 0.00 | 0.00 | 0.00 | 48 | |
| 20260508021608 | 53 | 277 | 1.0 | 2.0 | 0.00 | 0.00 | 0.00 | 48 | |
| 20260508021104 | 53 | 297 | 1.0 | 2.0 | 0.00 | 0.00 | 0.00 | 47 | |
| 20260508020602 | 53 | 271 | 1.0 | 2.0 | 0.00 | 0.00 | 0.00 | 47 | |
| 20260508020059 | 53 | 303 | 3.0 | 3.0 | 0.00 | 0.00 | 0.00 | 46 | |
| 20260508015557 | 53 | 285 | 2.0 | 2.0 | 0.00 | 0.00 | 0.00 | 46 | |
| 20260508015053 | 53 | 272 | 2.0 | 2.0 | 0.00 | 0.00 | 0.00 | 46 | |
| 20260508014550 | 53 | 261 | 0.0 | 5.0 | 0.00 | 0.00 | 0.00 | 46 | |
| 20260508014046 | 53 | 254 | 1.0 | 1.0 | 0.00 | 0.00 | 0.00 | 47 | |
| 20260508013542 | 53 | 248 | 0.0 | 1.0 | 0.00 | 0.00 | 0.00 | 46 | |
| 20260508013039 | 52 | 258 | 1.0 | 1.0 | 0.00 | 0.00 | 0.00 | 46 | |
| 20260508012537 | 52 | 254 | 0.0 | 1.0 | 0.00 | 0.00 | 0.00 | 47 | |
| 20260508012034 | 52 | 264 | 0.0 | 1.0 | 0.00 | 0.00 | 0.00 | 47 | |
| 20260508011532 | 52 | 264 | 0.0 | 1.0 | 0.00 | 0.00 | 0.00 | 46 | |
| 20260508011029 | 52 | 259 | 0.0 | 1.0 | 0.00 | 0.00 | 0.00 | 46 | |
| 20260508010526 | 52 | 254 | 0.0 | 1.0 | 0.00 | 0.00 | 0.00 | 45 | |
| 20260508010024 | 53 | 257 | 0.0 | 1.0 | 0.00 | 0.00 | 0.00 | 45 | |
| 20260508005520 | 53 | 258 | 0.0 | 1.0 | 0.00 | 0.00 | 0.00 | 44 | |
| 20260508005017 | 53 | 261 | 0.0 | 1.0 | 0.00 | 0.00 | 0.00 | 44 | |
| 20260508004513 | 53 | 257 | 0.0 | 2.0 | 0.00 | 0.00 | 0.00 | 44 | |
| 20260508004010 | 54 | 252 | 1.0 | 2.0 | 0.00 | 0.00 | 0.00 | 42 | |
| 20260508003506 | 54 | 265 | 1.0 | 3.0 | 0.00 | 0.00 | 0.00 | 43 | |
| 20260508003005 | 54 | 257 | 0.0 | 2.0 | 0.00 | 0.00 | 0.00 | 43 | |
| 20260508002459 | 54 | 252 | 0.0 | 2.0 | 0.00 | 0.00 | 0.00 | 43 | |
| 20260508001956 | 54 | 248 | 1.0 | 3.0 | 0.00 | 0.00 | 0.00 | 42 | |
| 20260508001453 | 54 | 285 | 1.0 | 1.0 | 0.00 | 0.00 | 0.00 | 43 | |
| 20260508000949 | 55 | 243 | 0.0 | 0.0 | 0.00 | 0.00 | 0.00 | 42 | |
| 20260508000444 | 55 | 251 | 2.0 | 3.0 | 0.00 | 0.00 | 0.00 | 42 | |
| 20260507235942 | 55 | 261 | 2.0 | 6.0 | 0.00 | 0.00 | 0.00 | 41 | |
| 20260507235438 | 55 | 262 | 3.0 | 6.0 | 0.00 | 0.00 | 0.00 | 41 | |
| 20260507234936 | 55 | 263 | 1.0 | 3.0 | 0.00 | 0.00 | 0.00 | 41 | |
| 20260507234433 | 55 | 239 | 0.0 | 2.0 | 0.00 | 0.00 | 0.00 | 42 | |
| 20260507233929 | 55 | 254 | 1.0 | 1.0 | 0.00 | 0.00 | 0.00 | 41 | |
| 20260507233426 | 55 | 264 | 1.0 | 7.0 | 0.00 | 0.00 | 0.00 | 41 | |
| 20260507232925 | 55 | 308 | 1.0 | 2.0 | 0.00 | 0.00 | 0.00 | 41 | |
| 20260507232421 | 56 | 257 | 1.0 | 1.0 | 0.00 | 0.00 | 0.00 | 40 | |
| 20260507231918 | 56 | 295 | 3.0 | 6.0 | 0.00 | 0.00 | 0.00 | 39 | |
| 20260507231414 | 57 | 269 | 1.0 | 5.0 | 0.00 | 0.00 | 0.00 | 38 | |
| 20260507230911 | 56 | 316 | 3.0 | 6.0 | 0.00 | 0.00 | 0.00 | 39 | |
| 20260507230409 | 56 | 273 | 2.0 | 5.0 | 0.00 | 0.00 | 0.00 | 38 | |
| 20260507225908 | 56 | 309 | 2.0 | 3.0 | 0.00 | 0.00 | 0.00 | 38 | |
| 20260507225405 | 56 | 281 | 2.0 | 6.0 | 0.00 | 0.00 | 0.00 | 38 | |
| 20260507224901 | 57 | 265 | 2.0 | 3.0 | 0.00 | 0.00 | 0.00 | 39 | |
| 20260507224357 | 56 | 291 | 3.0 | 7.0 | 0.00 | 0.00 | 0.00 | 37 | |
| 20260507223854 | 57 | 293 | 1.0 | 7.0 | 0.00 | 0.00 | 0.00 | 38 | |
| 20260507223350 | 57 | 238 | 2.0 | 5.0 | 0.00 | 0.00 | 0.00 | 38 | |
| 20260507222848 | 57 | 271 | 2.0 | 7.0 | 0.00 | 0.00 | 0.00 | 38 | |
| 20260507222344 | 57 | 341 | 9.0 | 13.0 | 0.00 | 0.00 | 0.00 | 37 | |
| 20260507221841 | 57 | 247 | 5.0 | 7.0 | 0.00 | 0.00 | 0.00 | 37 | |
| 20260507221337 | 57 | 305 | 3.0 | 9.0 | 0.00 | 0.00 | 0.00 | 39 | |
| 20260507220833 | 57 | 272 | 4.0 | 8.0 | 0.00 | 0.00 | 0.00 | 37 | |
| 20260507220332 | 58 | 257 | 3.0 | 6.0 | 0.00 | 0.00 | 0.00 | 36 | |
| 20260507215827 | 57 | 288 | 3.0 | 6.0 | 0.00 | 0.00 | 0.00 | 36 | |
| 20260507215324 | 58 | 322 | 3.0 | 6.0 | 0.00 | 0.00 | 0.00 | 37 | |
| 20260507214821 | 58 | 285 | 3.0 | 9.0 | 0.00 | 0.00 | 0.00 | 36 | |
| 20260507214319 | 58 | 330 | 4.0 | 7.0 | 0.00 | 0.00 | 0.00 | 36 | |
| 20260507213814 | 58 | 278 | 5.0 | 6.0 | 0.00 | 0.00 | 0.00 | 36 | |
| 20260507213312 | 58 | 273 | 3.0 | 6.0 | 0.00 | 0.00 | 0.00 | 36 | |
| 20260507212808 | 58 | 293 | 3.0 | 5.0 | 0.00 | 0.00 | 0.00 | 37 | |
| 20260507212307 | 58 | 0 | 7.0 | 10.0 | 0.00 | 0.00 | 0.00 | 35 | |
| 20260507211801 | 58 | 348 | 3.0 | 7.0 | 0.00 | 0.00 | 0.00 | 36 | |
| 20260507211258 | 57 | 254 | 3.0 | 8.0 | 0.00 | 0.00 | 0.00 | 36 | |
| 20260507210754 | 56 | 281 | 2.0 | 10.0 | 0.00 | 0.00 | 0.00 | 37 | |
| 20260507210251 | 58 | 305 | 5.0 | 7.0 | 0.00 | 0.00 | 0.00 | 36 |